{"data":{"norad_id":49018,"intl_designator":"2021-064A","name":"NINGXIA-1 6","alt_names":[],"object_type":"PAYLOAD","status":"ACTIVE","operator":null,"country":"PRC","launch_date":"2021-07-09","launch_site_code":"TAISC","launch_vehicle":null,"mission":null,"orbit_class":"UNKNOWN","rcs_meters":null,"size_class":null,"mass_kg":null,"dimensions":null,"purposes":[],"wikipedia_slug":null,"has_3d_model":false,"image_url":null,"decayed_at":null,"tle_current":{"epoch":"2026-05-25T00:13:57.852768Z","epoch_age_seconds":68064,"freshness":"FRESH","line1":"1 49018U 21064A   26145.00969737  .00000148  00000+0  16203-3 0  9991","line2":"2 49018  45.0014 331.8077 0007567 120.2360 239.9226 14.08532725250946","mean_motion":14.08532725,"eccentricity":0.0007567,"inclination_deg":45.0014,"raan_deg":331.8077,"arg_perigee_deg":120.236,"mean_anomaly_deg":239.9226,"bstar":0.00016203,"rev_number":25094,"period_min":102.23404642586,"perigee_km":858.91664564436,"apogee_km":869.87749670768,"semimajor_km":7242.534071176,"source":"CELESTRAK","updated_at":"2026-05-25T13:37:57.013042Z"}}}